Regional Weather Roundup
Issued by NWS Albany, NY

Home | Current Version | Previous Version | Graphics & Text | Print | Product List | Glossary Off
Versions: 1 2 3 4 5 6 7 8 9 10 11 12 13 14 15 16 17 18 19 20 21 22 23 24 25 26 27 28 29 30 31 32 33 34 35 36 37 38 39 40 41 42 43 44 45 46 47 48 49 50

000
ASUS41 KALY 211610
RWRALY

NEW YORK STATE HOURLY WEATHER ROUNDUP
NATIONAL WEATHER SERVICE ALBANY NY
1100 AM EST FRI NOV 21 2014

NOTE: "FAIR" INDICATES FEW OR NO CLOUDS BELOW 12,000 FEET WITH NO
SIGNIFICANT WEATHER AND/OR NO OBSTRUCTIONS TO VISIBILITY.

NYZ032-033-038>043-046>054-057>066-NYZ062>081-211700-
EAST


CITY           SKY/WX    TMP DP  RH WIND       PRES   REMARKS
ALBANY         PTSUNNY   27  16  63 W15       30.24R WCI  15
GLENS FALLS    CLOUDY    31  13  47 NW10      30.19R WCI  22
POUGHKEEPSIE   CLOUDY    33  10  38 NW10      30.26R WCI  25
NEWBURGH       PTSUNNY   28  14  54 NW16G23   30.26R WCI  17
MONTGOMERY     CLOUDY    30  11  45 NW12      30.26R WCI  20
WHITE PLAINS   MOSUNNY   32  11  41 NW13G24   30.24R WCI  22
ISLIP          MOSUNNY   33  11  39 NW21G26   30.23R WCI  21
NEW YORK CITY  MOSUNNY   33  13  43 NW20G32   30.29R WCI  21
CENTRAL PARK   SUNNY     32   8  36 VRB7G23   30.30R WCI  26
$$

NYZ005>009-017-018-044>046-055-056-211700-
CENTRAL


CITY           SKY/WX    TMP DP  RH WIND       PRES   REMARKS
FULTON         CLOUDY    26  15  63 NW15      30.32R WCI  14
SYRACUSE       FLURRIES  28  15  58 NW15      30.32R WCI  16
ROME           MOSUNNY   24  16  71 W13       30.30R WCI  12
ELMIRA         CLOUDY    27  15  61 NW16G25   30.32R WCI  15
BINGHAMTON     CLOUDY    23  14  68 NW14G23   30.23R HAZE    WCI  11
MONTICELLO     PTSUNNY   27  12  54 NW15G23   30.21R WCI  15
$$

NYZ026>034-041>043-211700-
NORTH


CITY           SKY/WX    TMP DP  RH WIND       PRES   REMARKS
WATERTOWN      SUNNY     25   5  42 VRB3      30.33R
FORT DRUM      NOT AVBL
MASSENA        SUNNY     21   5  50 W10       30.28R WCI  10
SARANAC LAKE   LGT SNOW  16   8  71 W9        30.12R WCI   4
PLATTSBURGH    SUNNY     26  10  50 NW10G20   30.20R WCI  16
$$

NYZ001>004-010>016-019>021-211700-
WEST


CITY           SKY/WX    TMP DP  RH WIND       PRES   REMARKS
NIAGARA FALLS  MOSUNNY   23  17  78 W6        30.37R WCI  16
BUFFALO        MOSUNNY   23  15  71 W6        30.37R WCI  16
DUNKIRK        CLOUDY    27  19  72 SW13      30.38S WCI  16
JAMESTOWN      CLOUDY    19  14  79 W13       30.31R WCI   7
WELLSVILLE     MIX PCPN  20  11  68 NW17G25   30.28R WCI   5
ROCHESTER      PTSUNNY   26  15  63 W15       30.36R WCI  14
PENN YAN       PTSUNNY   24  15  68 NW13      30.32R WCI  12
$$

             KEY
       WCI = WIND CHILL INDEX
       VSB = VISIBILITY
       HX  = HEAT INDEX
$$



USA.gov is the U.S. government's official web portal to all federal, state and local government web resources and services.